User: anonymous   Login
Location: ???? ?????
(30.0052°N, 31.2891°E)
Time: 04:41:00
(UTC+00:00)
Language:

Cosmos 1656 Rocket - Orbit

View from above orbital plane
View from above orbital plane
View from above satellite
View from above satellite

Ground track
Ground track

The orbit data is extracted from the following two-line orbital elements,

1 15772U 85042D   22228.49166567  .00000032  00000-0  36433-4 0  9999
2 15772  71.1096 315.2744 0036016 346.6460  94.4308 14.21351833929468
Epoch (UTC): 16 August 2022 11:47:59
Eccentricity: 0.0036016
inclination: 71.1096°
perigee height: 795 km
apogee height: 847 km
right ascension of ascending node: 315.2744°
argument of perigee: 346.6460°
revolutions per day: 14.21351833
mean anomaly at epoch: 94.4308°
orbit number at epoch: 92946

The dashed part of the orbit path shows where the satellite is in the earth's shadow,  

DLR